2022-098P (53457 NORAD) Tracking and Keplerian Element Data

This shows tracking and keplerian element data for the satellite.

Feedback or suggestion? Click here.




ElementValue
Catalog53457
Name2022-098P
Epoch Orbit722
Epoch Day270.16305628
Epoch Year2022
RAAN5.6909
Inclination97.5269
Eccentricity0.0012056
Argument of Perigee118.8903
Mean Anonmoly331.7567
Mean Motion15.10685205
Decay Rate6.762E-05
L11 53457U 22098P 22270.16305628 .00006762 00000+0 41152-3 0 9995
L22 53457 97.5269 5.6909 0012056 118.8903 331.7567 15.10685205 7223

Live tracking and technical data element details for 2022-098P (NORAD 53457). 2022-098P can be tracked NOW for your location showing map with azimuth and elevation plus other details from your city location.

Track the satellite on the map from your city or location and see movement details for azimuth, elevation, latitude, longitude, range, height, and movement on the map or in text.







IsCatalogInMostPopularTable: catalog: 53457, numindb: 2
Update: records affected: 1



GetName: 53457 2022-098P

Hit Count: updated at: Fri, 30 Sep 2022 03:51:52 GMT